CZ-6A DEB, 54978

Orbit data source: Space-Track

CZ-6A DEB, 54978 is space debris in SSO originally from a launch on Fri, 11 Nov 2022 UTC launched from the Taiyaun Space Center, China (TSC). Debris objects in space refer to the collection of defunct objects orbiting the Earth. Examples of debris include non-operational satellites, rocket bodies, and fragments generated from explosions, collisions, or faulty payload assembly.

Loading next visibility...
Identifier
54978, 2022-151TT
Orbit
SSO
Country
Flag of CNCN / PRC
Related business
Manufacturer
SAST
Mission
Spacecraft
Bus & Motor
Unknown
Mass
Unknown
Launch date (UTC)
2022-11-11 (4 years ago)
Launch vehicle
Unknown
Launch site
Taiyaun Space Center, China (TSC)
Object type
Payload
Rocket body
Debris
Shape & HBR
Unknown shape, 0.1 m
Radar Cross Section
Small (<0.1 m²)

Expand to show TLE details & history
Last TLE update: 1 day ago

TLE from 1 day ago
0 CZ-6A DEB
1 54978U 22151TT  26235.45645782  .00001409  00000-0  70560-3 0  9998
2 54978  98.8329 243.4904 0043598 126.0573 234.4653 14.17781186194222
Epoch: 2026-08-23T10:57Z
TLE epoch observation values (Epoch: 2026-08-23T10:57:17.955Z)
Latitude
-0.00001°
Longitude
107.41334°
Altitude
854.14 km
Speed
7.416 km/s
True Right ascension
16h 13m 57s
True Declination
0° 00' 00"
Sunlit
Object was in daylight at epoch
Visualization orbit readout
Latitude
Unknown
Longitude
Unknown
Altitude
Unknown
Speed
Unknown
Apparent Right ascension
Unknown
Apparent Declination
Unknown
Sunlit
N/A
Visualization observer readout
Local Sidereal Time
10:51:37
Azimuth
Unknown
Elevation
Unknown
Doppler factor
Unknown
Orbital elements
Apogee altitude
861.46 km
Perigee altitude
798.608 km
Semi-major axis
7,208.171 km
Eccentricity
0.00436
Inclination
98.8329°
RAAN
243.4904°
Arg. of periapsis
126.0573°
True anomaly
234.06003°
Mean anomaly
234.4653°
Eccentric anomaly
234.26254°
Mean motion
3.54655 °/min
Orbital period
101.51 mins
BSTAR
0.0007056
Loading maneuver chart data...
Computing Atmospheric mass density...
Loading historical data...
Loading historical data...
Loading historical data...
Loading historical data...
Loading historical data...
Loading historical data...
Loading historical data...

Documentation

Showing up to 5 results
|